Weather History for Chippewa, MI

Change the Weather History Date:

Saturday, August 10, 2013

  Actual Average Record
Temperature  
Mean Temperature 56 °F -  
Max Temperature 69 °F 74 °F 82 °F (2007)
Min Temperature 44 °F 52 °F 42 °F (1978)
Degree Days  
Heating Degree Days 8    
Growing Degree Days 6 (Base 50)    
Moisture  
Dew Point 50 °F    
Average Humidity 77    
Maximum Humidity 100    
Minimum Humidity 52    
Precipitation  
Precipitation 0.00 in - - ()
Sea Level Pressure  
Sea Level Pressure 30.09 in    
Wind  
Wind Speed 5 mph (NW)    
Max Wind Speed 13 mph    
Max Gust Speed 18 mph    
Visibility 10 miles    
Events      
Averages and records for this station are not official NWS values.
T = Trace of Precipitation, MM = Missing Value Source: NWS Daily Summary

Daily Weather History Graph

Daily Weather History Graph

Search for Another Location

Airport:

Trip Planner

Search our weather history database for the weather conditions in past years. The results will help you decide how hot, cold, wet, or windy it might be!

Date:

Astronomy

Aug. 10, 2013 Rise Set
Actual Time 6:30 AM EDT 8:54 PM EDT
Civil Twilight 5:57 AM EDT 9:28 PM EDT
Nautical Twilight 5:15 AM EDT 10:09 PM EDT
Astronomical Twilight 4:27 AM EDT 10:56 PM EDT
Moon 10:33 AM EDT (8/10) 10:17 PM EDT (8/10)
Length of Visible Light 15h 30m
Length of Day
14h 23m
Waxing Crescent, 14% of the Moon is Illuminated
Aug 10
Waxing Crescent
Aug 14
First Quarter
Aug 20
Full
Aug 28
Last Quarter
Sep 5
New

Hourly Weather History & Observations

Time (EDT) Temp. Windchill Dew Point Humidity Pressure Visibility Wind Dir Wind Speed Gust Speed Precip Events Conditions
12:15 AM 50.0 °F - 44.6 °F 82% 30.03 in 10.0 mi WNW 6.9 mph - N/A   Clear
12:35 AM 50.0 °F - 44.6 °F 82% 30.03 in 10.0 mi West 4.6 mph - N/A   Clear
12:55 AM 51.8 °F - 44.6 °F 76% 30.03 in 10.0 mi WNW 6.9 mph - N/A   Clear
1:15 AM 51.8 °F - 44.6 °F 76% 30.03 in 10.0 mi WNW 8.1 mph - N/A   Clear
1:35 AM 50.0 °F - 44.6 °F 82% 30.03 in 10.0 mi WNW 6.9 mph - N/A   Clear
1:55 AM 48.2 °F - 44.6 °F 87% 30.04 in 10.0 mi West 5.8 mph - N/A   Clear
2:15 AM 48.2 °F - 44.6 °F 87% 30.04 in 10.0 mi WNW 4.6 mph - N/A   Clear
2:35 AM 48.2 °F - 46.4 °F 93% 30.05 in 10.0 mi West 4.6 mph - N/A   Clear
2:55 AM 48.2 °F - 44.6 °F 87% 30.05 in 10.0 mi WSW 4.6 mph - N/A   Clear
3:15 AM 46.4 °F 45.2 °F 44.6 °F 93% 30.05 in 10.0 mi WSW 3.5 mph - N/A   Clear
3:35 AM 46.4 °F - 44.6 °F 93% 30.06 in 10.0 mi Calm Calm - N/A   Clear
3:55 AM 46.4 °F - 44.6 °F 93% 30.06 in 10.0 mi Calm Calm - N/A   Clear
4:15 AM 44.6 °F - 44.6 °F 100% 30.06 in 10.0 mi Calm Calm - N/A   Clear
4:35 AM 44.6 °F - 44.6 °F 100% 30.07 in 10.0 mi Calm Calm - N/A   Clear
4:55 AM 44.6 °F - 44.6 °F 100% 30.07 in 10.0 mi Calm Calm - N/A   Clear
5:15 AM 46.4 °F - 44.6 °F 93% 30.07 in 10.0 mi Calm Calm - N/A   Clear
5:35 AM 46.4 °F 45.2 °F 44.6 °F 93% 30.07 in 10.0 mi West 3.5 mph - N/A   Mostly Cloudy
5:55 AM 46.4 °F - 44.6 °F 93% 30.07 in 10.0 mi Calm Calm - N/A   Overcast
6:15 AM 46.4 °F - 44.6 °F 93% 30.08 in 10.0 mi Calm Calm - N/A   Overcast
6:35 AM 46.4 °F - 44.6 °F 93% 30.08 in 10.0 mi Calm Calm - N/A   Overcast
6:55 AM 46.4 °F 43.5 °F 44.6 °F 93% 30.09 in 10.0 mi West 5.8 mph - N/A   Overcast
7:15 AM 48.2 °F - 46.4 °F 93% 30.10 in 10.0 mi WSW 4.6 mph - N/A   Mostly Cloudy
7:35 AM 48.2 °F - 46.4 °F 93% 30.10 in 10.0 mi West 3.5 mph - N/A   Clear
7:55 AM 50.0 °F - 46.4 °F 87% 30.10 in 10.0 mi West 6.9 mph - N/A   Clear
8:15 AM 51.8 °F - 48.2 °F 88% 30.11 in 10.0 mi WSW 5.8 mph - N/A   Clear
8:35 AM 53.6 °F - 50.0 °F 88% 30.10 in 10.0 mi West 4.6 mph - N/A   Clear
8:55 AM 55.4 °F - 51.8 °F 88% 30.11 in 10.0 mi West 4.6 mph - N/A   Clear
9:15 AM 57.2 °F - 51.8 °F 82% 30.10 in 10.0 mi WSW 4.6 mph - N/A   Clear
9:35 AM 57.2 °F - 51.8 °F 82% 30.10 in 10.0 mi WSW 3.5 mph - N/A   Clear
9:55 AM 60.8 °F - 53.6 °F 77% 30.11 in 10.0 mi Calm Calm - N/A   Clear
10:15 AM 62.6 °F - 51.8 °F 68% 30.11 in 10.0 mi NW 4.6 mph - N/A   Clear
10:35 AM 62.6 °F - 51.8 °F 68% 30.11 in 10.0 mi WNW 6.9 mph - N/A   Clear
10:55 AM 64.4 °F - 51.8 °F 64% 30.11 in 10.0 mi NW 8.1 mph - N/A   Clear
11:15 AM 64.4 °F - 50.0 °F 59% 30.11 in 10.0 mi NW 12.7 mph - N/A   Clear
11:35 AM 64.4 °F - 50.0 °F 59% 30.11 in 10.0 mi NNW 9.2 mph - N/A   Clear
11:55 AM 66.2 °F - 50.0 °F 56% 30.12 in 10.0 mi WNW 10.4 mph - N/A   Partly Cloudy
12:15 PM 66.2 °F - 50.0 °F 56% 30.12 in 10.0 mi NW 4.6 mph - N/A   Mostly Cloudy
12:35 PM 66.2 °F - 50.0 °F 56% 30.11 in 10.0 mi WNW 8.1 mph - N/A   Partly Cloudy
12:55 PM 68.0 °F - 50.0 °F 52% 30.12 in 10.0 mi West 10.4 mph - N/A   Scattered Clouds
1:15 PM 68.0 °F - 50.0 °F 52% 30.11 in 10.0 mi NW 6.9 mph - N/A   Mostly Cloudy
1:35 PM 66.2 °F - 51.8 °F 60% 30.11 in 10.0 mi NW 8.1 mph - N/A   Overcast
1:55 PM 66.2 °F - 51.8 °F 60% 30.11 in 10.0 mi NNW 5.8 mph - N/A   Overcast
2:15 PM 68.0 °F - 50.0 °F 52% 30.11 in 10.0 mi WNW 8.1 mph - N/A   Overcast
2:35 PM 68.0 °F - 51.8 °F 56% 30.11 in 10.0 mi West 8.1 mph - N/A   Mostly Cloudy
2:55 PM 68.0 °F - 51.8 °F 56% 30.11 in 10.0 mi NW 9.2 mph - N/A   Mostly Cloudy
3:15 PM 69.8 °F - 53.6 °F 56% 30.11 in 10.0 mi NNW 9.2 mph - N/A   Overcast
3:35 PM 68.0 °F - 53.6 °F 60% 30.11 in 10.0 mi NNW 12.7 mph 16.1 mph N/A   Mostly Cloudy
3:55 PM 69.8 °F - 53.6 °F 56% 30.11 in 10.0 mi NNW 9.2 mph 18.4 mph N/A   Scattered Clouds
4:15 PM 68.0 °F - 53.6 °F 60% 30.10 in 10.0 mi North 12.7 mph 18.4 mph N/A   Mostly Cloudy
4:35 PM 68.0 °F - 53.6 °F 60% 30.11 in 10.0 mi NNW 12.7 mph 18.4 mph N/A   Scattered Clouds
4:55 PM 66.2 °F - 53.6 °F 64% 30.11 in 10.0 mi NNW 11.5 mph - N/A   Partly Cloudy
5:15 PM 68.0 °F - 53.6 °F 60% 30.11 in 10.0 mi NNW 10.4 mph 16.1 mph N/A   Partly Cloudy
5:35 PM 66.2 °F - 53.6 °F 64% 30.10 in 10.0 mi NNW 9.2 mph - N/A   Partly Cloudy
5:55 PM 66.2 °F - 53.6 °F 64% 30.10 in 10.0 mi NNW 10.4 mph - N/A   Scattered Clouds
6:15 PM 64.4 °F - 53.6 °F 68% 30.10 in 10.0 mi NNW 9.2 mph - N/A   Scattered Clouds
6:35 PM 64.4 °F - 53.6 °F 68% 30.10 in 10.0 mi NNW 11.5 mph - N/A   Scattered Clouds
6:55 PM 66.2 °F - 53.6 °F 64% 30.10 in 10.0 mi NNW 9.2 mph - N/A   Mostly Cloudy
7:15 PM 64.4 °F - 53.6 °F 68% 30.10 in 10.0 mi NNW 6.9 mph - N/A   Scattered Clouds
7:35 PM 64.4 °F - 53.6 °F 68% 30.10 in 10.0 mi NNW 5.8 mph - N/A   Mostly Cloudy
7:55 PM 64.4 °F - 53.6 °F 68% 30.09 in 10.0 mi NNW 5.8 mph - N/A   Mostly Cloudy
8:15 PM 64.4 °F - 53.6 °F 68% 30.09 in 10.0 mi NNW 4.6 mph - N/A   Partly Cloudy
8:35 PM 62.6 °F - 53.6 °F 72% 30.09 in 10.0 mi NNW 4.6 mph - N/A   Clear
8:55 PM 60.8 °F - 53.6 °F 77% 30.09 in 10.0 mi NNW 5.8 mph - N/A   Clear
9:15 PM 59.0 °F - 53.6 °F 82% 30.09 in 10.0 mi NW 5.8 mph - N/A   Clear
9:35 PM 57.2 °F - 53.6 °F 88% 30.10 in 10.0 mi NW 3.5 mph - N/A   Clear
9:55 PM 57.2 °F - 53.6 °F 88% 30.10 in 10.0 mi NNW 5.8 mph - N/A   Clear
10:15 PM 57.2 °F - 53.6 °F 88% 30.10 in 10.0 mi NW 3.5 mph - N/A   Clear
10:35 PM 57.2 °F - 53.6 °F 88% 30.10 in 10.0 mi Calm Calm - N/A   Clear
10:55 PM 57.2 °F - 53.6 °F 88% 30.09 in 7.0 mi Calm Calm - N/A   Clear
11:15 PM 55.4 °F - 53.6 °F 94% 30.09 in 10.0 mi Calm Calm - N/A   Clear
11:35 PM 55.4 °F - 53.6 °F 94% 30.09 in 10.0 mi Calm Calm - N/A   Clear
11:55 PM 55.4 °F - 53.6 °F 94% 30.09 in 10.0 mi Calm Calm - N/A   Clear